モンターニ彗星

C/1998 M6 ( Montani )

English version
Home page
Updated on March 26, 1999

---------------------------------------------------------------------

・ プロフィール

発見日 1998年6月30日
発見光度 18.9等
発見者 J. Montani

・ 軌道要素

   The following improved orbital elements by Kenji Muraoka, are 
  from 86 observations  1998 June 30  to  Nov. 16, perturbations 
  by 9 Planets, Moon and 5 minor planets were taken into account.
   The mean residual is +/- 0.66 arc seconds.

      Epoch  =  1998 Sept. 24.0  TT      JDT = 2451080.5
          T  =  1998 Oct.   6.56562      +/- 0.10252 (m.e.) TT
       Peri. =    9.14640                +/- 0.00737
       Node  =  306.60361                +/- 0.00264   (2000.0)
       Incl. =   91.54037                +/- 0.00608
          q  =    5.9786745              +/- 0.0001491 AU
          e  =    0.9989914              +/- 0.0001179
        1/a  =   +0.0001687              +/- 0.0000197 1/AU

・ 星図

・ 光度変化

        m1 = 7.5 + 5 logΔ + 10.0 log r

---------------------------------------------------------------------

軌道要素は村岡健治氏の計算によるものです。
星図は StellaNavigator Ver.2.0 for Windows (アストロアーツ 編著 / アスキー出版局刊) で作成したものです。
光度グラフはComet for Windowsで作成したものです。

---------------------------------------------------------------------

Copyright(C) Seiichi Yoshida (comet@aerith.net). All rights reserved.